Location: Unspecified
(0.0000°N, 0.0000°E)
Time: 15:31:47
(UTC+00:00)

Altair - Pass Details

Date: 21 March 2026
Orbit: 1502 x 1682 km, 47.2° (Epoch: 18 April)

Event Time Altitude Azimuth Distance (km) Brightness Sun altitude
Exits shadow 04:37:08 - 326° (NW) 3,952 9.3 -22.5°
Reaches altitude 10° 04:38:01 10° 327° (NNW) 3,669 9.2 -22.3°
Maximum altitude 04:47:16 74° 51° (NE) 1,601 7.6 -20.0°
Drops below altitude 10° 04:56:52 10° 135° (SE) 3,806 10.2 -17.6°
Sets 05:00:01 0° 136° (SE) 4,817 10.8 -16.8°
